EW0609 Weather Reports


time (UTC)temp
C
wind
direction
speed
KPH
gust
KPH
rain 1hr
cm
rain 24hr
cm
rain mn
cm
humidity
%
barometer
mb
20260507092735 6 298 3.2 6.4 0.00 0.03 0.03 90 1020.9
20260507092616 6 289 1.6 6.4 0.00 0.03 0.03 91 1020.9
20260507091733 6 327 1.6 6.4 0.00 0.03 0.03 90 1020.9
20260507091233 6 353 4.8 6.4 0.00 0.03 0.03 91 1020.9
20260507090733 6 340 1.6 9.7 0.00 0.03 0.03 91 1020.9
20260507090232 6 341 3.2 9.7 0.00 0.03 0.03 90 1020.6
20260507085733 6 330 3.2 6.4 0.00 0.03 0.03 90 1020.7
20260507085234 6 340 1.6 6.4 0.00 0.03 0.03 90 1020.7
20260507084734 6 334 1.6 9.7 0.00 0.03 0.03 90 1020.6
20260507084235 5 344 6.4 9.7 0.00 0.03 0.03 90 1020.4
20260507083733 5 140 0.0 6.4 0.00 0.03 0.03 90 1020.3
20260507083614 5 118 0.0 6.4 0.00 0.03 0.03 90 1020.4
20260507082733 6 125 1.6 6.4 0.00 0.03 0.03 89 1020.3
20260507082235 6 127 3.2 6.4 0.03 0.03 0.03 89 1020.3
20260507081733 6 135 0.0 4.8 0.03 0.03 0.03 89 1020.3
20260507081235 6 128 3.2 4.8 0.03 0.03 0.03 89 1020.4
20260507080733 6 87 0.0 6.4 0.03 0.03 0.03 89 1020.4
20260507080233 6 99 3.2 6.4 0.03 0.03 0.03 89 1020.5
20260507075734 6 78 0.0 3.2 0.03 0.00 0.03 89 1020.6
20260507075233 6 89 0.0 0.0 0.03 0.00 0.03 88 1020.5
20260507075130 6 52 0.0 3.2 0.03 0.00 0.03 88 1020.7
20260507074233 6 63 0.0 8.0 0.03 0.00 0.03 88 1020.7
20260507074121 6 55 1.6 8.0 0.03 0.00 0.03 88 1020.4
20260507073614 6 86 4.8 8.0 0.03 0.00 0.03 87 1020.5
20260507072734 6 103 4.8 6.4 0.03 0.00 0.03 87 1020.9
20260507072233 6 83 0.0 4.8 0.00 0.00 0.00 87 1021.2
20260507072123 6 347 1.6 6.4 0.00 0.00 0.00 86 1021.5
20260507071233 6 21 0.0 6.4 0.00 0.00 0.00 85 1021.4
20260507070734 6 0 1.6 11.3 0.00 0.00 0.00 84 1021.6
20260507070234 6 0 4.8 16.1 0.00 0.00 0.00 83 1021.6
20260507065735 6 357 4.8 16.1 0.00 0.00 0.00 81 1021.9
20260507065619 7 353 4.8 16.1 0.00 0.00 0.00 80 1022.0
20260507064732 7 309 9.7 20.9 0.00 0.00 0.00 79 1021.7
20260507064232 7 353 9.7 20.9 0.00 0.00 0.00 78 1022.0
20260507063732 7 357 6.4 19.3 0.00 0.00 0.00 77 1021.7
20260507063234 7 345 4.8 19.3 0.00 0.00 0.00 76 1022.1
20260507062734 7 357 8.0 14.5 0.00 0.00 0.00 75 1022.1
20260507062233 7 338 8.0 14.5 0.00 0.00 0.00 74 1021.9
20260507061734 7 354 4.8 14.5 0.00 0.00 0.00 73 1021.5
20260507061233 7 11 6.4 14.5 0.00 0.00 0.00 73 1021.4
20260507060733 7 0 3.2 14.5 0.00 0.00 0.00 73 1021.4
20260507060235 7 34 4.8 11.3 0.00 0.00 0.00 72 1021.2
20260507055732 7 0 3.2 16.1 0.00 0.00 0.00 71 1021.1
20260507055234 7 7 6.4 16.1 0.00 0.00 0.00 71 1021.2
20260507054732 7 18 0.0 11.3 0.00 0.00 0.00 72 1021.0
20260507054232 7 13 3.2 11.3 0.00 0.00 0.00 72 1020.9
20260507053732 7 37 3.2 9.7 0.00 0.00 0.00 72 1020.9
20260507053232 7 14 4.8 22.5 0.00 0.00 0.00 71 1021.0
20260507052732 7 16 9.7 22.5 0.00 0.00 0.00 70 1021.0
20260507052235 7 11 4.8 19.3 0.00 0.00 0.00 70 1021.0
20260507051733 7 7 6.4 19.3 0.00 0.00 0.00 69 1020.7
20260507051233 8 68 6.4 20.9 0.00 0.00 0.00 69 1020.7
20260507051114 8 13 8.0 20.9 0.00 0.00 0.00 68 1020.7
20260507050233 8 0 4.8 14.5 0.00 0.00 0.00 68 1020.5
20260507045733 8 4 4.8 19.3 0.00 0.00 0.00 67 1020.6
20260507045233 8 16 6.4 20.9 0.00 0.00 0.00 67 1020.9
20260507045122 8 14 8.0 20.9 0.00 0.00 0.00 67 1021.2
20260507044233 8 54 6.4 17.7 0.00 0.00 0.00 67 1021.0
20260507044054 8 1 4.8 22.5 0.00 0.00 0.00 67 1021.1
20260507043617 8 24 9.7 22.5 0.00 0.00 0.00 66 1021.4
20260507042732 8 20 9.7 25.7 0.00 0.00 0.00 66 1021.0
20260507042232 8 7 14.5 25.7 0.00 0.00 0.00 65 1020.6
20260507041733 8 3 14.5 24.1 0.00 0.00 0.00 63 1020.7
20260507041232 9 21 8.0 24.1 0.00 0.00 0.00 62 1020.6
20260507040734 9 32 11.3 24.1 0.00 0.00 0.00 61 1020.6
20260507040233 9 0 8.0 22.5 0.00 0.00 0.00 61 1020.5
20260507040123 9 44 8.0 25.7 0.00 0.00 0.00 61 1020.5
20260507035232 9 348 9.7 25.7 0.00 0.00 0.00 61 1020.4
20260507034735 9 34 9.7 37.0 0.00 0.00 0.00 61 1020.5
20260507034232 9 0 9.7 37.0 0.00 0.00 0.00 61 1020.6
20260507033734 10 37 14.5 25.7 0.00 0.00 0.00 60 1020.4
20260507033232 10 31 4.8 22.5 0.00 0.00 0.00 60 1020.4
20260507032732 9 49 11.3 30.6 0.00 0.00 0.00 60 1020.3
20260507032615 10 62 16.1 30.6 0.00 0.00 0.00 60 1020.2
20260507031733 10 34 9.7 27.4 0.00 0.00 0.00 61 1020.1
20260507031233 10 319 14.5 24.1 0.00 0.00 0.00 61 1020.0
20260507031012 10 344 12.9 27.4 0.00 0.00 0.00 58 1019.7
20260507030902 10 3 12.9 27.4 0.00 0.00 0.00 60 1019.8
20260507025733 11 35 6.4 22.5 0.00 0.00 0.00 57 1019.6
20260507025620 11 76 6.4 20.9 0.00 0.00 0.00 57 1019.7
20260507024733 11 20 9.7 30.6 0.00 0.00 0.00 58 1019.5
20260507024232 11 25 12.9 30.6 0.00 0.00 0.00 57 1019.4
20260507023732 11 23 14.5 27.4 0.00 0.00 0.00 57 1019.2
20260507023625 11 14 12.9 27.4 0.00 0.00 0.00 57 1019.0
20260507022733 11 16 6.4 20.9 0.00 0.00 0.00 57 1018.8
20260507022234 11 25 9.7 25.7 0.00 0.00 0.00 56 1018.6
20260507022122 11 6 11.3 25.7 0.00 0.00 0.00 55 1018.7
20260507021622 11 48 6.4 25.7 0.00 0.00 0.00 54 1018.6
20260507020732 12 20 11.3 25.7 0.00 0.00 0.00 54 1018.4
20260507020232 12 0 8.0 25.7 0.00 0.00 0.00 54 1018.2
20260507020125 12 347 8.0 22.5 0.00 0.00 0.00 55 1018.0
20260507015233 12 8 9.7 19.3 0.00 0.00 0.00 55 1017.6
20260507014731 12 6 3.2 14.5 0.00 0.00 0.00 56 1017.4
20260507014617 12 44 4.8 16.1 0.00 0.00 0.00 55 1017.2
20260507013732 12 14 6.4 19.3 0.00 0.00 0.00 55 1017.2
20260507013232 12 69 6.4 19.3 0.00 0.00 0.00 55 1016.9
20260507012735 12 23 3.2 11.3 0.00 0.00 0.00 54 1016.7
20260507012232 12 329 1.6 9.7 0.00 0.00 0.00 53 1016.6
20260507011732 13 44 1.6 11.3 0.00 0.00 0.00 53 1016.4
20260507011231 13 47 3.2 11.3 0.00 0.00 0.00 52 1016.2
20260507010732 13 49 3.2 11.3 0.00 0.00 0.00 52 1016.2
20260507010619 13 45 3.2 11.3 0.00 0.00 0.00 52 1015.8
20260507005733 13 47 3.2 9.7 0.00 0.00 0.00 52 1015.7
20260507005324 13 55 1.6 11.3 0.00 0.00 0.00 52 1015.7
20260507004901 13 71 1.6 11.3 0.00 0.00 0.00 52 1015.6
20260507004120 13 0 3.2 16.1 0.00 0.00 0.00 51 1015.4
20260507003232 14 52 3.2 17.7 0.00 0.00 0.00 51 1015.5
20260507002732 14 110 4.8 17.7 0.00 0.00 0.00 51 1015.5
20260507002233 13 0 1.6 17.7 0.00 0.00 0.00 51 1015.5
20260507001732 14 37 3.2 17.7 0.00 0.00 0.00 50 1015.3
20260507001233 15 100 3.2 20.9 0.00 0.00 0.00 49 1015.2
20260507000734 15 52 4.8 20.9 0.00 0.00 0.00 49 1015.1
20260507000233 15 63 4.8 17.7 0.00 0.00 0.00 49 1015.1
20260507000136 15 113 6.4 17.7 0.00 0.00 0.00 49 1014.9
20260506235232 15 110 6.4 14.5 0.00 0.00 0.00 49 1014.7
20260506234732 15 117 8.0 27.4 0.00 0.00 0.00 48 1014.7
20260506234233 15 39 8.0 27.4 0.00 0.00 0.00 48 1014.7
20260506233732 15 71 12.9 24.1 0.00 0.00 0.00 47 1014.7
20260506233232 15 124 11.3 22.5 0.00 0.00 0.00 47 1014.6
20260506232732 15 110 11.3 22.5 0.00 0.00 0.00 48 1014.6
20260506232232 15 65 6.4 30.6 0.00 0.00 0.00 48 1014.7
20260506231735 15 102 20.9 30.6 0.00 0.00 0.00 47 1014.7
20260506231515 16 86 4.8 16.1 0.00 0.00 0.00 47 1014.9
20260506231400 16 164 4.8 16.1 0.00 0.00 0.00 48 1014.8
20260506230233 16 85 8.0 17.7 0.00 0.00 0.00 47 1014.9
20260506225731 16 99 6.4 19.3 0.00 0.00 0.00 48 1014.7
20260506225232 16 100 8.0 19.3 0.00 0.00 0.00 46 1014.8
20260506224732 16 123 3.2 16.1 0.00 0.00 0.00 48 1014.8
20260506224619 15 83 6.4 24.1 0.00 0.00 0.00 48 1014.8
20260506223733 15 107 14.5 24.1 0.00 0.00 0.00 48 1014.8
20260506223414 16 109 3.2 14.5 0.00 0.00 0.00 48 1014.9
20260506223404 16 107 8.0 17.7 0.00 0.00 0.00 47 1014.9
20260506223320 15 83 12.9 24.1 0.00 0.00 0.00 47 1014.8
20260506221732 16 16 3.2 20.9 0.00 0.00 0.00 49 1015.1
20260506221233 16 114 8.0 20.9 0.00 0.00 0.00 49 1015.1
20260506220732 16 193 4.8 14.5 0.00 0.00 0.00 48 1015.3
20260506220233 16 34 3.2 19.3 0.00 0.00 0.00 48 1015.3
20260506215732 16 42 9.7 19.3 0.00 0.00 0.00 47 1015.3
20260506215231 16 78 4.8 17.7 0.00 0.00 0.00 48 1015.2
20260506214733 16 138 1.6 11.3 0.00 0.00 0.00 48 1015.3
20260506214233 16 18 3.2 20.9 0.00 0.00 0.00 48 1015.3
20260506213732 15 24 8.0 24.1 0.00 0.00 0.00 49 1015.4
20260506213232 15 106 11.3 24.1 0.00 0.00 0.00 48 1015.5
20260506212732 15 49 8.0 19.3 0.00 0.00 0.00 48 1015.4
20260506212231 16 111 6.4 27.4 0.00 0.00 0.00 50 1015.4
20260506211915 16 37 3.2 24.1 0.00 0.00 0.00 49 1015.5
20260506211907 16 75 8.0 24.1 0.00 0.00 0.00 48 1015.5
20260506211822 16 59 8.0 27.4 0.00 0.00 0.00 48 1015.5
20260506210231 16 85 8.0 19.3 0.00 0.00 0.00 48 1015.5
20260506205734 15 56 3.2 17.7 0.00 0.00 0.00 51 1015.5
20260506205621 14 56 4.8 17.7 0.00 0.00 0.00 51 1015.5
20260506204731 15 44 6.4 11.3 0.00 0.00 0.00 50 1015.6
20260506204619 15 11 3.2 16.1 0.00 0.00 0.00 47 1015.6
20260506204116 17 34 6.4 24.1 0.00 0.00 0.00 47 1015.5
20260506203231 16 83 9.7 24.1 0.00 0.00 0.00 48 1015.5
20260506202732 16 17 8.0 17.7 0.00 0.00 0.00 49 1015.5
20260506202233 16 18 4.8 16.1 0.00 0.00 0.00 49 1015.5
20260506202021 15 111 14.5 20.9 0.00 0.00 0.00 49 1015.4
20260506201906 16 45 4.8 20.9 0.00 0.00 0.00 49 1015.4
20260506200731 16 82 8.0 14.5 0.00 0.00 0.00 48 1015.3
20260506200232 16 49 3.2 16.1 0.00 0.00 0.00 48 1015.3
20260506195734 15 130 8.0 24.1 0.00 0.00 0.00 49 1015.3
20260506195232 15 100 8.0 24.1 0.00 0.00 0.00 49 1015.6
20260506194732 16 102 4.8 20.9 0.00 0.00 0.00 48 1015.5
20260506194232 16 45 4.8 17.7 0.00 0.00 0.00 51 1015.6
20260506193731 15 130 4.8 11.3 0.00 0.00 0.00 50 1015.6
20260506193233 15 117 4.8 14.5 0.00 0.00 0.00 50 1015.7
20260506192733 15 120 4.8 14.5 0.00 0.00 0.00 52 1015.9
20260506192232 13 104 3.2 11.3 0.00 0.00 0.00 53 1015.9
20260506191731 13 59 4.8 14.5 0.00 0.00 0.00 52 1015.9
20260506191237 14 120 4.8 16.1 0.00 0.00 0.00 52 1015.9
20260506190732 15 90 4.8 16.1 0.00 0.00 0.00 50 1015.9
20260506190233 15 28 3.2 11.3 0.00 0.00 0.00 52 1015.8
20260506185732 15 75 4.8 11.3 0.00 0.00 0.00 54 1016.1
20260506185232 13 85 3.2 11.3 0.00 0.00 0.00 55 1016.1
20260506184732 13 62 3.2 17.7 0.00 0.00 0.00 54 1016.1
20260506184622 13 114 8.0 19.3 0.00 0.00 0.00 53 1016.2
20260506183733 15 118 6.4 17.7 0.00 0.00 0.00 56 1016.2
20260506183232 15 144 4.8 16.1 0.00 0.00 0.00 52 1016.2
20260506182732 15 14 3.2 8.0 0.00 0.00 0.00 53 1016.4
20260506182613 14 38 3.2 8.0 0.00 0.00 0.00 56 1016.5
20260506181733 13 76 3.2 8.0 0.00 0.00 0.00 56 1016.7
20260506181231 13 39 1.6 9.7 0.00 0.00 0.00 58 1016.7
20260506180732 12 20 3.2 11.3 0.00 0.00 0.00 59 1016.8
20260506180233 12 124 4.8 11.3 0.00 0.00 0.00 58 1016.7
20260506175732 12 58 6.4 14.5 0.00 0.00 0.00 59 1016.7
20260506175232 11 247 0.0 14.5 0.00 0.00 0.00 58 1016.9
20260506174731 11 100 9.7 14.5 0.00 0.00 0.00 58 1016.9
20260506174626 12 90 4.8 11.3 0.00 0.00 0.00 57 1017.1
20260506174114 12 111 4.8 11.3 0.00 0.00 0.00 57 1016.9
20260506173232 12 224 3.2 19.3 0.00 0.00 0.00 56 1017.1
20260506172733 12 51 4.8 20.9 0.00 0.00 0.00 57 1016.9
20260506172613 13 97 11.3 20.9 0.00 0.00 0.00 58 1017.1
20260506171732 11 106 6.4 17.7 0.00 0.00 0.00 59 1016.9
20260506171232 11 44 4.8 24.1 0.00 0.00 0.00 62 1016.8
20260506171117 11 106 11.3 24.1 0.00 0.00 0.00 62 1016.9
20260506170621 11 97 6.4 22.5 0.00 0.00 0.00 61 1016.8
20260506165731 11 300 1.6 17.7 0.00 0.00 0.00 62 1016.9
20260506165231 10 97 8.0 17.7 0.00 0.00 0.00 62 1016.6
20260506165119 10 121 8.0 16.1 0.00 0.00 0.00 63 1016.7
20260506164234 10 86 8.0 17.7 0.00 0.00 0.00 63 1016.9
20260506163732 10 109 9.7 19.3 0.00 0.00 0.00 64 1016.8
20260506163232 10 94 6.4 19.3 0.00 0.00 0.00 64 1016.8
20260506162732 10 35 1.6 14.5 0.00 0.00 0.00 65 1016.8
20260506162617 10 125 9.7 16.1 0.00 0.00 0.00 64 1016.8
20260506161731 10 134 8.0 16.1 0.00 0.00 0.00 64 1016.7
20260506161234 10 131 3.2 17.7 0.00 0.00 0.00 64 1016.5
20260506160730 10 109 9.7 17.7 0.00 0.00 0.00 62 1016.4
20260506160231 10 130 1.6 16.1 0.00 0.00 0.00 65 1016.3
20260506155903 9 121 9.7 17.7 0.00 0.00 0.00 65 1016.2
20260506155857 9 123 4.8 17.7 0.00 0.00 0.00 65 1016.3
20260506155817 9 124 11.3 16.1 0.00 0.00 0.00 64 1016.4
20260506154625 9 85 9.7 16.1 0.00 0.00 0.00 66 1016.2
20260506153732 8 75 9.7 16.1 0.00 0.00 0.00 66 1016.3
20260506153230 8 97 8.0 11.3 0.00 0.00 0.00 65 1016.3
20260506153121 8 47 4.8 14.5 0.00 0.00 0.00 66 1016.3
20260506152232 8 92 1.6 14.5 0.00 0.00 0.00 66 1016.1
20260506151733 8 97 6.4 14.5 0.00 0.00 0.00 66 1016.2
20260506151232 8 69 0.0 11.3 0.00 0.00 0.00 67 1016.2
20260506150732 8 180 6.4 14.5 0.00 0.00 0.00 67 1016.2
20260506150622 8 104 1.6 17.7 0.00 0.00 0.00 68 1016.1
20260506145730 8 116 6.4 17.7 0.00 0.00 0.00 68 1016.1
20260506145624 7 130 6.4 14.5 0.00 0.00 0.00 68 1016.1
20260506145116 7 103 6.4 16.1 0.00 0.00 0.00 68 1016.1
20260506144231 7 140 6.4 17.7 0.00 0.00 0.00 69 1015.9
20260506143731 7 120 11.3 19.3 0.00 0.00 0.00 68 1015.7
20260506143230 7 134 9.7 19.3 0.00 0.00 0.00 68 1015.7
20260506142731 7 111 6.4 17.7 0.00 0.00 0.00 68 1015.7
20260506142231 7 92 11.3 17.7 0.00 0.00 0.00 68 1015.6
20260506141733 7 103 8.0 17.7 0.00 0.00 0.00 69 1015.6
20260506141232 7 110 6.4 22.5 0.00 0.00 0.00 69 1015.4
20260506140733 7 110 11.3 22.5 0.00 0.00 0.00 69 1015.3
20260506140231 7 134 9.7 24.1 0.00 0.00 0.00 70 1015.3
20260506140127 7 89 14.5 27.4 0.00 0.00 0.00 70 1015.1
20260506135624 6 114 17.7 27.4 0.00 0.00 0.00 70 1015.1
20260506134731 6 120 19.3 25.7 0.00 0.00 0.00 70 1015.1
20260506134231 6 78 12.9 25.7 0.00 0.00 0.00 70 1015.1
20260506133732 6 83 11.3 25.7 0.00 0.00 0.00 71 1015.2
20260506133231 6 118 12.9 20.9 0.00 0.00 0.00 71 1015.3
20260506132731 6 90 8.0 22.5 0.00 0.00 0.00 71 1015.5
20260506132232 6 85 9.7 22.5 0.00 0.00 0.00 72 1015.5
20260506131731 6 128 11.3 20.9 0.00 0.00 0.00 71 1015.3
20260506131231 6 94 12.9 22.5 0.00 0.00 0.00 72 1015.5
20260506130731 6 99 11.3 24.1 0.00 0.00 0.00 72 1015.6
20260506130618 6 118 14.5 24.1 0.00 0.00 0.00 71 1015.9
20260506125732 6 100 12.9 24.1 0.00 0.00 0.00 71 1015.9
20260506125233 6 75 6.4 19.3 0.00 0.00 0.00 71 1015.6
20260506124732 6 127 8.0 19.3 0.00 0.00 0.00 72 1015.7
20260506124231 6 82 4.8 19.3 0.00 0.00 0.00 73 1015.8
20260506123731 6 104 11.3 19.3 0.00 0.00 0.00 72 1015.5
20260506123232 6 86 8.0 19.3 0.00 0.00 0.00 73 1015.6
20260506123119 5 93 4.8 14.5 0.00 0.00 0.00 73 1015.8
20260506122231 5 97 4.8 14.5 0.00 0.00 0.00 73 1015.9
20260506121731 5 117 6.4 17.7 0.00 0.00 0.00 73 1015.6
20260506121233 5 124 8.0 17.7 0.00 0.00 0.00 73 1015.5
20260506120731 5 140 6.4 19.3 0.00 0.00 0.00 73 1015.5
20260506120232 5 103 12.9 22.5 0.00 0.00 0.00 73 1015.4
20260506115734 5 96 14.5 27.4 0.00 0.00 0.00 73 1015.3
20260506115234 5 110 11.3 27.4 0.00 0.00 0.00 74 1015.3
20260506114731 5 94 11.3 27.4 0.00 0.00 0.00 75 1015.1
20260506114231 5 117 12.9 27.4 0.00 0.00 0.00 75 1014.9
20260506113732 5 90 12.9 20.9 0.00 0.00 0.00 77 1014.9
20260506113622 5 104 8.0 19.3 0.00 0.00 0.00 79 1014.7
20260506112731 5 92 8.0 20.9 0.00 0.00 0.00 80 1014.7
20260506112231 5 94 11.3 22.5 0.00 0.00 0.00 81 1014.8
20260506111736 5 104 11.3 22.5 0.00 0.00 0.00 82 1014.8
20260506111231 5 107 12.9 29.0 0.00 0.00 0.00 83 1014.6
20260506110734 5 83 11.3 29.0 0.00 0.00 0.00 83 1014.6
20260506110232 5 114 14.5 24.1 0.00 0.00 0.00 83 1014.6
20260506110125 5 120 12.9 22.5 0.00 0.00 0.00 82 1014.7
20260506105232 5 100 11.3 25.7 0.00 0.00 0.00 82 1014.7
20260506104731 5 161 14.5 25.7 0.00 0.00 0.00 81 1014.8
20260506104232 5 124 9.7 20.9 0.00 0.00 0.00 81 1014.8
20260506103731 5 110 6.4 22.5 0.00 0.00 0.00 82 1014.7
20260506103231 5 127 11.3 22.5 0.00 0.00 0.00 82 1014.6
20260506103126 5 83 11.3 22.5 0.00 0.00 0.00 83 1014.6
20260506102231 5 96 12.9 20.9 0.00 0.00 0.00 83 1014.6
20260506101731 6 90 6.4 16.1 0.00 0.00 0.00 82 1014.6
20260506101231 6 103 6.4 16.1 0.00 0.00 0.00 81 1014.6
20260506100731 6 76 3.2 16.1 0.00 0.00 0.00 80 1014.7
20260506100231 6 79 6.4 16.1 0.00 0.00 0.00 80 1014.4
20260506100134 6 0 3.2 11.3 0.00 0.00 0.00 80 1014.4
20260506095622 6 45 1.6 11.3 0.00 0.00 0.00 81 1014.2
20260506094732 6 27 3.2 17.7 0.00 0.00 0.00 81 1014.0
20260506094232 6 86 9.7 17.7 0.00 0.00 0.00 80 1013.9
20260506093734 6 92 6.4 25.7 0.00 0.00 0.00 81 1013.9
20260506093232 6 118 9.7 25.7 0.00 0.00 0.00 80 1013.7